Regional Weather Roundup
Issued by NWS Raleigh/Durham, NC

Home | Current Version | Previous Version | Text Only | Print | Product List | Glossary On
Versions: 1 2 3 4 5 6 7 8 9 10 11 12 13 14 15 16 17 18 19 20 21 22 23 24 25 26 27 28 29 30 31 32 33 34 35 36 37 38 39 40 41 42 43 44 45 46 47 48 49 50
000
ASUS42 KRAH 210710
RWRRAH
NORTH CAROLINA WEATHER ROUNDUP
NATIONAL WEATHER SERVICE RALEIGH NC
300 AM EDT SUN SEP 21 2014

NOTE: "FAIR" INDICATES FEW OR NO CLOUDS BELOW 12,000 FEET WITH NO
SIGNIFICANT WEATHER AND/OR OBSTRUCTIONS TO VISIBILITY.

NCZ001-053-055-056-065-067-210800-
WESTERN NORTH CAROLINA

CITY           SKY/WX    TMP DP  RH WIND       PRES   REMARKS
ASHEVILLE      MOCLDY    56  54  93 CALM      30.07F FOG
JEFFERSON      CLEAR     55  53  94 CALM      30.06F
HICKORY        CLEAR     60  58  92 W6        30.00F
RUTHERFORDTON  NOT AVBL
MOUNT AIRY     CLEAR     58  56  92 CALM      30.01F FOG
$$

NCZ021-022-025-041-071-084-088-210800-
CENTRAL NORTH CAROLINA

CITY           SKY/WX    TMP DP  RH WIND       PRES   REMARKS
CHARLOTTE      PTCLDY    60  58  92 CALM      29.98F
GREENSBORO     PTCLDY    61  58  90 N3        29.97F
WINSTON-SALEM  CLEAR     61  56  83 CALM      29.98F
RALEIGH-DURHAM MOCLDY    65  61  87 NE5       29.95F
FORT BRAGG     MOCLDY    67  64  88 N7        29.90F
FAYETTEVILLE   PTCLDY    69  64  84 N12       29.89F
$$

NCZ011-015-027-028-043-044-047-080-103-210800-
NORTHEASTERN NORTH CAROLINA

CITY           SKY/WX    TMP DP  RH WIND       PRES   REMARKS
ROANOKE RAPIDS CLOUDY    66  64  94 N6        29.93F
ROCKY MT-WILSO CLOUDY    68  65  90 N8        29.91F
GREENVILLE     LGT RAIN  68  68 100 N8        29.89F
WASHINGTON     CLOUDY    69  68  97 N8        29.85F
ELIZABETH CITY NOT AVBL
MANTEO         DRIZZLE   71  70  96 E7        29.85F
CAPE HATTERAS  RAIN      71  71 100 NE5       29.79F FOG
$$

NCZ078-087-090-091-093-098-101-210800-
SOUTHEASTERN NORTH CAROLINA

CITY           SKY/WX    TMP DP  RH WIND       PRES   REMARKS
LUMBERTON      MOCLDY    69  64  84 N6        29.88F
GOLDSBORO      CLOUDY    69  68  98 VRB2G18   29.86F
KINSTON        LGT RAIN  69  68  98 N13       29.86F
KENANSVILLE    LGT RAIN  68  67  94 N10       29.86F
NEW BERN       RAIN      73  69  87 N10       29.82F
CHERRY POINT   HVY RAIN  72  70  93 N15       29.79F FOG
BEAUFORT       HVY RAIN  73  71  93 N13       29.75F FOG
JACKSONVILLE   LGT RAIN  71  69  93 N14       29.79F
WILMINGTON     LGT RAIN  69  68  96 N13       29.80F
$$



USA.gov is the U.S. government's official web portal to all federal, state and local government web resources and services.